{"data":{"norad_id":56350,"epoch":"2026-05-25T00:19:25.300128Z","epoch_age_seconds":74621,"freshness":"FRESH","line1":"1 56350U 23058AK  26145.01348727 -.00005084  00000+0 -34829-3 0  9994","line2":"2 56350  97.4452 146.1215 0002747  85.8501 274.3040 15.05676431169687","mean_motion":15.05676431,"eccentricity":0.0002747,"inclination_deg":97.4452,"raan_deg":146.1215,"arg_perigee_deg":85.8501,"mean_anomaly_deg":274.304,"bstar":-0.00034829,"rev_number":16968,"period_min":95.638078032716,"perigee_km":547.52707807594,"apogee_km":551.3330834301,"semimajor_km":6927.567080753,"source":"CELESTRAK","updated_at":"2026-05-25T13:38:18.006856Z"}}